This is the latest recevied weather packets stored in our database for station/object VE3EP-1. If no packets are shown the sender has not sent any weather packets the latest 10 day(s).
| Time | Temp. | Humidity | Pressure | Rain* | Wind** | Luminosity | Snow |
|---|---|---|---|---|---|---|---|
| 1788474538 | 23.33° C | 76% | 1014.1 hPa | 0 mm | - | - | - |
| 1788473937 | 23.33° C | 75% | 1013.9 hPa | 0 mm | - | - | - |
| 1788473338 | 23.89° C | 74% | 1014.1 hPa | 0 mm | - | - | - |
| 1788472137 | 23.89° C | 73% | 1014.5 hPa | 0 mm | - | - | - |
| 1788471538 | 23.89° C | 72% | 1014.3 hPa | 0 mm | - | - | - |
| 1788470938 | 23.89° C | 71% | 1014.4 hPa | 0 mm | - | - | - |
| 1788470337 | 23.89° C | 73% | 1014.7 hPa | 0 mm | - | - | - |
| 1788469738 | 23.89° C | 70% | 1014.7 hPa | 0 mm | - | - | - |
| 1788469137 | 23.89° C | 71% | 1014.4 hPa | 0 mm | - | - | - |
| 1788468538 | 24.44° C | 70% | 1014.6 hPa | 0 mm | - | - | - |
| 1788467937 | 24.44° C | 70% | 1014.8 hPa | 0 mm | - | - | - |
| 1788466737 | 25.56° C | 68% | 1014.5 hPa | 0 mm | - | - | - |
| 1788464937 | 26.11° C | 68% | 1014.7 hPa | 0 mm | - | - | - |
| 1788464338 | 26.67° C | 69% | 1015.1 hPa | 0 mm | - | - | - |
| 1788463737 | 26.67° C | 65% | 1015.2 hPa | 0 mm | - | - | - |
| 1788461937 | 26.11° C | 63% | 1015.2 hPa | 0 mm | - | - | - |
| 1788460737 | 25° C | 63% | 1015.5 hPa | 0 mm | - | - | - |
| 1788460138 | 24.44° C | 70% | 1015.5 hPa | 0 mm | - | - | - |
| 1788459537 | 24.44° C | 71% | 1015.6 hPa | 0 mm | - | - | - |
| 1788458937 | 24.44° C | 76% | 1015.7 hPa | 0 mm | - | - | - |
| 1788456537 | 23.33° C | 82% | 1015.6 hPa | 0 mm | - | - | - |
| 1788455937 | 23.33° C | 81% | 1015.6 hPa | 0 mm | - | - | - |
| 1788454738 | 22.22° C | 81% | 1015.7 hPa | 0 mm | - | - | - |
| 1788453537 | 23.33° C | 81% | 1015.6 hPa | 0 mm | - | - | - |
| 1788452338 | 23.33° C | 80% | 1015.7 hPa | 0 mm | - | - | - |
* Rain latest hour (hover to see other rain measurements)
** Current wind speed in m/s (hover to see current wind gust speed)